Time,TemperatureF,DewpointF,PressureIn,WindDirection,WindDirectionDegrees,WindSpeedMPH,WindSpeedGustMPH,Humidity,HourlyPrecipIn,Conditions,Clouds,dailyrainin,SoftwareType,DateUTC
2013-01-19 00:02:00,58.0,7.0,-100.00,SE,143,3.0,5.0,13,-99.99,,,-99.99,,2013-01-19 08:02:00,
2013-01-19 00:12:00,57.0,8.0,-100.00,NNE,30,2.0,3.0,14,-99.99,,,-99.99,,2013-01-19 08:12:00,
2013-01-19 00:22:00,58.0,7.0,-100.00,ESE,114,3.0,5.0,13,-99.99,,,-99.99,,2013-01-19 08:22:00,
2013-01-19 00:32:00,56.0,7.0,-100.00,ESE,110,4.0,6.0,14,-99.99,,,-99.99,,2013-01-19 08:32:00,
2013-01-19 00:42:00,55.0,8.0,-100.00,East,95,6.0,7.0,15,-99.99,,,-99.99,,2013-01-19 08:42:00,
2013-01-19 00:52:00,56.0,9.0,-100.00,ESE,109,5.0,8.0,15,-99.99,,,-99.99,,2013-01-19 08:52:00,
2013-01-19 01:02:00,55.0,8.0,-100.00,East,99,4.0,7.0,15,-99.99,,,-99.99,,2013-01-19 09:02:00,
2013-01-19 01:12:00,56.0,7.0,-100.00,East,97,5.0,7.0,14,-99.99,,,-99.99,,2013-01-19 09:12:00,
2013-01-19 01:22:00,56.0,9.0,-100.00,East,94,5.0,7.0,15,-99.99,,,-99.99,,2013-01-19 09:22:00,
2013-01-19 01:32:00,54.0,9.0,-100.00,East,99,6.0,7.0,16,-99.99,,,-99.99,,2013-01-19 09:32:00,
2013-01-19 01:42:00,52.0,11.0,-100.00,ESE,102,7.0,8.0,19,-99.99,,,-99.99,,2013-01-19 09:42:00,
2013-01-19 01:52:00,51.0,11.0,-100.00,East,96,7.0,9.0,20,-99.99,,,-99.99,,2013-01-19 09:52:00,
2013-01-19 02:02:00,51.0,10.0,-100.00,East,97,7.0,9.0,19,-99.99,,,-99.99,,2013-01-19 10:02:00,
2013-01-19 02:12:00,53.0,9.0,-100.00,ESE,110,6.0,8.0,17,-99.99,,,-99.99,,2013-01-19 10:12:00,
2013-01-19 02:22:00,54.0,9.0,-100.00,ESE,108,6.0,8.0,16,-99.99,,,-99.99,,2013-01-19 10:22:00,
2013-01-19 02:32:00,54.0,7.0,-100.00,East,100,6.0,7.0,15,-99.99,,,-99.99,,2013-01-19 10:32:00,
2013-01-19 02:42:00,53.0,9.0,-100.00,East,98,7.0,9.0,17,-99.99,,,-99.99,,2013-01-19 10:42:00,
2013-01-19 02:52:00,52.0,10.0,-100.00,ESE,113,7.0,9.0,18,-99.99,,,-99.99,,2013-01-19 10:52:00,
2013-01-19 03:02:00,52.0,10.0,-100.00,ESE,109,7.0,10.0,18,-99.99,,,-99.99,,2013-01-19 11:02:00,
2013-01-19 03:12:00,51.0,11.0,-100.00,East,99,7.0,9.0,20,-99.99,,,-99.99,,2013-01-19 11:12:00,
2013-01-19 04:52:00,50.0,11.0,-100.00,East,98,7.0,9.0,20,-99.99,,,-99.99,,2013-01-19 12:52:00,
2013-01-19 05:02:00,50.0,11.0,-100.00,East,99,7.0,9.0,20,-99.99,,,-99.99,,2013-01-19 13:02:00,
2013-01-19 05:12:00,50.0,12.0,-100.00,East,100,7.0,9.0,21,-99.99,,,-99.99,,2013-01-19 13:12:00,
2013-01-19 05:22:00,49.0,13.0,-100.00,ESE,102,7.0,10.0,23,-99.99,,,-99.99,,2013-01-19 13:22:00,
2013-01-19 05:33:00,50.0,12.0,-100.00,East,97,8.0,9.0,21,-99.99,,,-99.99,,2013-01-19 13:33:00,
2013-01-19 05:42:00,50.0,11.0,-100.00,ESE,102,7.0,9.0,20,-99.99,,,-99.99,,2013-01-19 13:42:00,
2013-01-19 05:52:00,50.0,11.0,-100.00,East,99,8.0,9.0,20,-99.99,,,-99.99,,2013-01-19 13:52:00,
2013-01-19 06:02:00,50.0,11.0,-100.00,East,100,7.0,9.0,20,-99.99,,,-99.99,,2013-01-19 14:02:00,
2013-01-19 06:12:00,51.0,10.0,-100.00,East,100,7.0,9.0,19,-99.99,,,-99.99,,2013-01-19 14:12:00,
2013-01-19 06:22:00,50.0,11.0,-100.00,East,97,7.0,9.0,20,-99.99,,,-99.99,,2013-01-19 14:22:00,
2013-01-19 06:33:00,52.0,10.0,-100.00,East,101,6.0,7.0,18,-99.99,,,-99.99,,2013-01-19 14:33:00,
2013-01-19 06:42:00,53.0,9.0,-100.00,ESE,106,6.0,8.0,17,-99.99,,,-99.99,,2013-01-19 14:42:00,
2013-01-19 06:53:00,52.0,9.0,-100.00,ESE,102,7.0,8.0,17,-99.99,,,-99.99,,2013-01-19 14:53:00,
2013-01-19 07:02:00,51.0,10.0,-100.00,ESE,104,7.0,8.0,19,-99.99,,,-99.99,,2013-01-19 15:02:00,
2013-01-19 07:12:00,51.0,10.0,-100.00,East,101,7.0,8.0,19,-99.99,,,-99.99,,2013-01-19 15:12:00,
2013-01-19 07:22:00,50.0,11.0,-100.00,East,99,7.0,8.0,20,-99.99,,,-99.99,,2013-01-19 15:22:00,
2013-01-19 07:33:00,52.0,9.0,-100.00,East,100,6.0,8.0,17,-99.99,,,-99.99,,2013-01-19 15:33:00,
2013-01-19 07:42:00,52.0,9.0,-100.00,ESE,102,5.0,8.0,17,-99.99,,,-99.99,,2013-01-19 15:42:00,
2013-01-19 07:53:00,54.0,7.0,-100.00,East,99,4.0,7.0,15,-99.99,,,-99.99,,2013-01-19 15:53:00,
2013-01-19 08:02:00,54.0,7.0,-100.00,East,99,4.0,7.0,15,-99.99,,,-99.99,,2013-01-19 16:02:00,
2013-01-19 08:12:00,53.0,8.0,-100.00,East,100,4.0,7.0,16,-99.99,,,-99.99,,2013-01-19 16:12:00,
2013-01-19 08:22:00,56.0,7.0,-100.00,ESE,121,3.0,6.0,14,-99.99,,,-99.99,,2013-01-19 16:22:00,
2013-01-19 08:33:00,56.0,7.0,-100.00,East,93,4.0,6.0,14,-99.99,,,-99.99,,2013-01-19 16:33:00,
2013-01-19 08:42:00,56.0,9.0,-100.00,East,84,4.0,6.0,15,-99.99,,,-99.99,,2013-01-19 16:42:00,
2013-01-19 08:53:00,56.0,12.0,-100.00,ESE,113,3.0,5.0,17,-99.99,,,-99.99,,2013-01-19 16:53:00,
2013-01-19 09:02:00,57.0,13.0,-100.00,ESE,118,5.0,7.0,17,-99.99,,,-99.99,,2013-01-19 17:02:00,
2013-01-19 09:23:00,59.0,13.0,-100.00,ESE,112,2.0,5.0,16,-99.99,,,-99.99,,2013-01-19 17:23:00,
2013-01-19 09:33:00,61.0,11.0,-100.00,ESE,113,3.0,11.0,14,-99.99,,,-99.99,,2013-01-19 17:33:00,
2013-01-19 09:44:00,61.0,11.0,-100.00,ESE,113,3.0,11.0,14,-99.99,,,-99.99,,2013-01-19 17:44:00,
2013-01-19 09:53:00,62.0,12.0,-100.00,SW,229,2.0,3.0,14,-99.99,,,-99.99,,2013-01-19 17:53:00,
2013-01-19 10:04:00,62.0,12.0,-100.00,West,268,2.0,5.0,14,-99.99,,,-99.99,,2013-01-19 18:04:00,
2013-01-19 10:13:00,62.0,15.0,-100.00,South,177,2.0,4.0,16,-99.99,,,-99.99,,2013-01-19 18:13:00,
2013-01-19 10:23:00,63.0,11.0,-100.00,SSW,209,2.0,4.0,13,-99.99,,,-99.99,,2013-01-19 18:23:00,
2013-01-19 10:43:00,64.0,12.0,-100.00,NE,34,1.0,4.0,13,-99.99,,,-99.99,,2013-01-19 18:43:00,
2013-01-19 10:53:00,63.0,13.0,-100.00,SSW,211,2.0,5.0,14,-99.99,,,-99.99,,2013-01-19 18:53:00,
2013-01-19 11:04:00,63.0,13.0,-100.00,WNW,296,2.0,5.0,14,-99.99,,,-99.99,,2013-01-19 19:04:00,
2013-01-19 11:25:00,63.0,11.0,-100.00,SSW,203,4.0,7.0,13,-99.99,,,-99.99,,2013-01-19 19:25:00,
2013-01-19 11:35:00,64.0,12.0,-100.00,SSW,209,4.0,8.0,13,-99.99,,,-99.99,,2013-01-19 19:35:00,
2013-01-19 11:43:00,63.0,11.0,-100.00,West,277,5.0,11.0,13,-99.99,,,-99.99,,2013-01-19 19:43:00,
2013-01-19 11:53:00,63.0,11.0,-100.00,NNE,19,7.0,16.0,13,-99.99,,,-99.99,,2013-01-19 19:53:00,
2013-01-19 12:05:00,62.0,11.0,-100.00,ENE,62,12.0,20.0,13,-99.99,,,-99.99,,2013-01-19 20:05:00,
2013-01-19 12:14:00,63.0,10.0,-100.00,ENE,71,10.0,15.0,12,-99.99,,,-99.99,,2013-01-19 20:14:00,
2013-01-19 12:43:00,64.0,10.0,-100.00,ENE,64,8.0,16.0,12,-99.99,,,-99.99,,2013-01-19 20:43:00,
2013-01-19 12:53:00,64.0,10.0,-100.00,ENE,60,10.0,17.0,12,-99.99,,,-99.99,,2013-01-19 20:53:00,
2013-01-19 13:03:00,64.0,12.0,-100.00,ENE,58,12.0,19.0,13,-99.99,,,-99.99,,2013-01-19 21:03:00,
2013-01-19 13:13:00,62.0,12.0,-100.00,NE,54,14.0,23.0,14,-99.99,,,-99.99,,2013-01-19 21:13:00,
2013-01-19 13:23:00,63.0,11.0,-100.00,ENE,60,11.0,18.0,13,-99.99,,,-99.99,,2013-01-19 21:23:00,
2013-01-19 13:35:00,65.0,11.0,-100.00,ENE,62,8.0,13.0,12,-99.99,,,-99.99,,2013-01-19 21:35:00,
2013-01-19 13:46:00,65.0,11.0,-100.00,NE,56,8.0,15.0,12,-99.99,,,-99.99,,2013-01-19 21:46:00,
2013-01-19 13:53:00,64.0,10.0,-100.00,ENE,77,7.0,12.0,12,-99.99,,,-99.99,,2013-01-19 21:53:00,
2013-01-19 14:05:00,65.0,11.0,-100.00,ENE,63,5.0,10.0,12,-99.99,,,-99.99,,2013-01-19 22:05:00,
2013-01-19 14:14:00,66.0,12.0,-100.00,ESE,104,2.0,6.0,12,-99.99,,,-99.99,,2013-01-19 22:14:00,
2013-01-19 14:33:00,65.0,11.0,-100.00,SSE,148,5.0,9.0,12,-99.99,,,-99.99,,2013-01-19 22:33:00,
2013-01-19 14:45:00,65.0,11.0,-100.00,SSE,151,4.0,10.0,12,-99.99,,,-99.99,,2013-01-19 22:45:00,
2013-01-19 14:54:00,65.0,11.0,-100.00,SE,146,5.0,11.0,12,-99.99,,,-99.99,,2013-01-19 22:54:00,
2013-01-19 15:05:00,66.0,12.0,-100.00,SSW,198,4.0,11.0,12,-99.99,,,-99.99,,2013-01-19 23:05:00,
2013-01-19 15:13:00,65.0,11.0,-100.00,South,181,5.0,9.0,12,-99.99,,,-99.99,,2013-01-19 23:13:00,
2013-01-19 15:24:00,65.0,11.0,-100.00,South,178,4.0,7.0,12,-99.99,,,-99.99,,2013-01-19 23:24:00,
2013-01-19 15:33:00,65.0,11.0,-100.00,SSE,159,3.0,7.0,12,-99.99,,,-99.99,,2013-01-19 23:33:00,
2013-01-19 15:44:00,65.0,11.0,-100.00,SE,137,4.0,8.0,12,-99.99,,,-99.99,,2013-01-19 23:44:00,
2013-01-19 15:56:00,65.0,13.0,-100.00,SE,133,4.0,8.0,13,-99.99,,,-99.99,,2013-01-19 23:56:00,
2013-01-19 16:13:00,65.0,9.0,-100.00,SE,132,4.0,7.0,11,-99.99,,,-99.99,,2013-01-20 00:13:00,
2013-01-19 16:23:00,64.0,8.0,-100.00,SE,135,4.0,7.0,11,-99.99,,,-99.99,,2013-01-20 00:23:00,
2013-01-19 16:34:00,64.0,10.0,-100.00,SE,126,3.0,6.0,12,-99.99,,,-99.99,,2013-01-20 00:34:00,
2013-01-19 16:44:00,64.0,10.0,-100.00,ESE,117,2.0,6.0,12,-99.99,,,-99.99,,2013-01-20 00:44:00,
2013-01-19 16:53:00,64.0,8.0,-100.00,ESE,110,4.0,6.0,11,-99.99,,,-99.99,,2013-01-20 00:53:00,
2013-01-19 17:03:00,63.0,10.0,-100.00,ESE,118,5.0,7.0,12,-99.99,,,-99.99,,2013-01-20 01:03:00,
2013-01-19 17:15:00,62.0,9.0,-100.00,ESE,114,5.0,7.0,12,-99.99,,,-99.99,,2013-01-20 01:15:00,
2013-01-19 17:23:00,61.0,8.0,-100.00,ESE,111,6.0,9.0,12,-99.99,,,-99.99,,2013-01-20 01:23:00,
2013-01-19 17:33:00,60.0,9.0,-100.00,ESE,108,6.0,8.0,13,-99.99,,,-99.99,,2013-01-20 01:33:00,
2013-01-19 17:44:00,60.0,11.0,-100.00,ESE,104,6.0,8.0,14,-99.99,,,-99.99,,2013-01-20 01:44:00,
2013-01-19 17:55:00,59.0,8.0,-100.00,East,81,6.0,10.0,13,-99.99,,,-99.99,,2013-01-20 01:55:00,
2013-01-19 18:03:00,59.0,8.0,-100.00,East,81,6.0,10.0,13,-99.99,,,-99.99,,2013-01-20 02:03:00,
2013-01-19 18:13:00,59.0,8.0,-100.00,East,82,6.0,12.0,13,-99.99,,,-99.99,,2013-01-20 02:13:00,
2013-01-19 18:23:00,59.0,8.0,-100.00,ENE,77,5.0,10.0,13,-99.99,,,-99.99,,2013-01-20 02:23:00,
2013-01-19 18:34:00,59.0,6.0,-100.00,ENE,62,6.0,13.0,12,-99.99,,,-99.99,,2013-01-20 02:34:00,
2013-01-19 18:43:00,58.0,7.0,-100.00,NE,49,2.0,7.0,13,-99.99,,,-99.99,,2013-01-20 02:43:00,
2013-01-19 19:05:00,58.0,6.0,-100.00,ENE,72,9.0,16.0,12,-99.99,,,-99.99,,2013-01-20 03:05:00,
2013-01-19 19:13:00,59.0,5.0,-100.00,East,94,8.0,16.0,11,-99.99,,,-99.99,,2013-01-20 03:13:00,
2013-01-19 19:22:00,59.0,6.0,-100.00,East,96,5.0,10.0,12,-99.99,,,-99.99,,2013-01-20 03:22:00,
2013-01-19 19:34:00,58.0,6.0,-100.00,NNW,343,2.0,5.0,12,-99.99,,,-99.99,,2013-01-20 03:34:00,
2013-01-19 19:44:00,57.0,7.0,-100.00,NE,38,2.0,5.0,13,-99.99,,,-99.99,,2013-01-20 03:44:00,
2013-01-19 19:53:00,56.0,7.0,-100.00,East,90,4.0,7.0,14,-99.99,,,-99.99,,2013-01-20 03:53:00,
2013-01-19 20:03:00,56.0,6.0,-100.00,SE,140,3.0,6.0,13,-99.99,,,-99.99,,2013-01-20 04:03:00,
2013-01-19 20:14:00,55.0,8.0,-100.00,ESE,106,5.0,7.0,15,-99.99,,,-99.99,,2013-01-20 04:14:00,
2013-01-19 20:23:00,57.0,7.0,-100.00,SE,127,4.0,7.0,13,-99.99,,,-99.99,,2013-01-20 04:23:00,
2013-01-19 20:33:00,58.0,7.0,-100.00,SSE,149,3.0,8.0,13,-99.99,,,-99.99,,2013-01-20 04:33:00,
2013-01-19 20:43:00,56.0,7.0,-100.00,East,101,5.0,8.0,14,-99.99,,,-99.99,,2013-01-20 04:43:00,
2013-01-19 20:53:00,55.0,7.0,-100.00,East,96,5.0,7.0,14,-99.99,,,-99.99,,2013-01-20 04:53:00,
2013-01-19 21:03:00,55.0,7.0,-100.00,ESE,108,6.0,7.0,14,-99.99,,,-99.99,,2013-01-20 05:03:00,
2013-01-19 21:12:00,54.0,6.0,-100.00,East,101,6.0,7.0,14,-99.99,,,-99.99,,2013-01-20 05:12:00,
2013-01-19 21:22:00,54.0,6.0,-100.00,East,99,6.0,7.0,14,-99.99,,,-99.99,,2013-01-20 05:22:00,
2013-01-19 21:32:00,54.0,6.0,-100.00,East,98,6.0,8.0,14,-99.99,,,-99.99,,2013-01-20 05:32:00,
2013-01-19 21:42:00,53.0,8.0,-100.00,ESE,102,6.0,8.0,16,-99.99,,,-99.99,,2013-01-20 05:42:00,
2013-01-19 21:52:00,53.0,7.0,-100.00,East,98,7.0,8.0,15,-99.99,,,-99.99,,2013-01-20 05:52:00,
2013-01-19 22:02:00,53.0,8.0,-100.00,East,100,7.0,8.0,16,-99.99,,,-99.99,,2013-01-20 06:02:00,
2013-01-19 22:11:00,53.0,8.0,-100.00,ESE,108,7.0,9.0,16,-99.99,,,-99.99,,2013-01-20 06:11:00,
2013-01-19 22:22:00,54.0,6.0,-100.00,ESE,114,7.0,9.0,14,-99.99,,,-99.99,,2013-01-20 06:22:00,
2013-01-19 22:32:00,53.0,7.0,-100.00,ESE,112,8.0,10.0,15,-99.99,,,-99.99,,2013-01-20 06:32:00,
2013-01-19 22:42:00,53.0,7.0,-100.00,ESE,112,8.0,10.0,15,-99.99,,,-99.99,,2013-01-20 06:42:00,
2013-01-19 22:52:00,51.0,8.0,-100.00,ESE,106,7.0,9.0,17,-99.99,,,-99.99,,2013-01-20 06:52:00,
2013-01-19 23:02:00,51.0,8.0,-100.00,ESE,106,7.0,9.0,17,-99.99,,,-99.99,,2013-01-20 07:02:00,
2013-01-19 23:11:00,53.0,7.0,-100.00,ESE,107,9.0,10.0,15,-99.99,,,-99.99,,2013-01-20 07:11:00,
2013-01-19 23:22:00,52.0,7.0,-100.00,ESE,102,8.0,10.0,16,-99.99,,,-99.99,,2013-01-20 07:22:00,
2013-01-19 23:32:00,52.0,7.0,-100.00,ESE,105,8.0,10.0,16,-99.99,,,-99.99,,2013-01-20 07:32:00,
2013-01-19 23:42:00,52.0,7.0,-100.00,ESE,105,8.0,10.0,16,-99.99,,,-99.99,,2013-01-20 07:42:00,
2013-01-19 23:52:00,53.0,7.0,-100.00,ESE,110,8.0,9.0,15,-99.99,,,-99.99,,2013-01-20 07:52:00,